Regional Weather Roundup
Issued by NWS Jackson, KY

Home | Current Version | Previous Version | Text Only | Print | Product List | Glossary Off
Versions: 1 2 3 4 5 6 7 8 9 10 11 12 13 14 15 16 17 18 19 20 21 22 23 24 25 26 27 28 29 30 31 32 33 34 35 36 37 38 39 40 41 42 43 44 45 46 47 48 49 50

941
ASUS43 KJKL 241310
RWRJKL

EAST KENTUCKY HOURLY WEATHER ROUNDUP
NATIONAL WEATHER SERVICE JACKSON KY
800 AM EST FRI NOV 24 2017

NOTE: "FAIR" INDICATES FEW OR NO CLOUDS BELOW 12,000 FEET WITH
NO SIGNIFICANT WEATHER AND/OR OBSTRUCTIONS TO VISIBILITY.

* THESE REPORTS ARE NOT UNDER NWS QUALITY CONTROL AND MAY NOT
  REPORT WEATHER SUCH AS PRECIPITATION AND FOG.

KYZ079-080-083-085-087-088-110-112-115-119-120-241400
...EASTERN KENTUCKY...

CITY           SKY/WX    TMP DP  RH WIND       PRES   REMARKS
JACKSON        CLOUDY    33  21  61 S3        30.01F
LONDON         CLOUDY    27  23  85 S3        30.02S
SOMERSET*      CLOUDY    27  23  86 CALM      30.04S
MONTICELLO*    CLOUDY    24  22  91 W9        30.04S WCI  14
WILLIAMSBURG*  CLOUDY    27  27 100 CALM      30.03S
MIDDLESBORO*   CLEAR     26  26  99 CALM      30.07S
HARLAN APT*    CLOUDY    28  27  93 CALM      30.05S
PIKE CO APT*     N/A     33  23  68 S5        30.02R WCI  28
BIG SANDY APT* CLOUDY    31  25  77 SW3       30.03R
MOREHEAD APT*  CLOUDY    30  21  69 SE5       30.02S WCI  25
$$

KYZ035-036-041-042-044-050-067-078-099-241400
...CENTRAL KENTUCKY...

CITY           SKY/WX    TMP DP  RH WIND       PRES   REMARKS
MT STERLING*   CLOUDY    28  25  86 SW3       30.02R
FLEMING/MASON* CLOUDY    31  24  74 S8        30.01R WCI  23
DANVILLE*      CLOUDY    32  25  74 CALM      30.02R
LEXINGTON      CLOUDY    32  23  69 SE8       30.00R WCI  25
FRANKFORT      CLOUDY    27  22  81 CALM      29.99R
LOUISVILLE     CLOUDY    33  25  72 SE5       30.00R WCI  29
LEBANON*         N/A     34  25  69 S9        30.00R WCI  26
GLASGOW*       CLOUDY    28  28 100 CALM      30.01R
BOWLING GREEN  CLOUDY    29  27  92 CALM      30.02R
$$

KYZ091>093-OHZ055-061-077-WVZ005-015-034-035-042-241400
...SOUTHERN OHIO/WEST VIRGINIA...

CITY           SKY/WX    TMP DP  RH WIND       PRES   REMARKS
COVINGTON      CLOUDY    29  24  82 S9        29.97R WCI  20
COLUMBUS       CLOUDY    29  24  82 CALM      29.98S
DAYTON         CLOUDY    31  25  78 S6        29.96R WCI  25
WILMINGTON     CLEAR     31  25  78 S6        29.97R WCI  25
HUNTINGTON     CLOUDY    26  22  84 E6        30.02F WCI  19
CHARLESTON     CLOUDY    26  24  92 CALM      30.04R
PINEVILLE*       N/A     25  22  90 MISG      30.09R
BECKLEY        CLOUDY    28  18  66 CALM      30.01R
BLUEFIELD      CLOUDY    34  20  56 CALM      30.02R
LOGAN CO APT*    N/A     32  21  64 CALM      30.02R
$$

VAZ002-007-008-TNZ017-027-036-066-071-241400
...SOUTHWEST VIRGINIA/EAST TENNESSEE...

CITY           SKY/WX    TMP DP  RH WIND       PRES   REMARKS
WISE*          CLOUDY    36  27  69 CALM      30.02S
JONESVILLE*      N/A     27  25  93 CALM      30.07S
ABINGDON*      CLEAR     32  30  91 CALM      30.03R
BRISTOL        CLOUDY    28  27  96 CALM      30.05R
MORRISTOWN*    SUNNY     32  30  93 CALM      30.04R
SEVIERVILLE*   SUNNY     28  27  93 CALM      30.06R
KNOXVILLE      PTCLDY    32  32 100 CALM      30.05R FOG
LAFOLLETTE*    SUNNY     28  27  93 CALM      30.08S
OAK RIDGE      MIX PCPN  31  31 100 CALM      30.07R VSB<1/4
CROSSVILLE     CLOUDY    31  26  82 CALM      30.02R
NASHVILLE      CLOUDY    31  26  82 CALM      30.02R
$$

...KEY TO REMARKS...
VSB - VISIBILITY IN MILES
WCI - WIND CHILL INDEX
HX  - HEAT INDEX

$$




USA.gov is the U.S. government's official web portal to all federal, state and local government web resources and services.